Regional Weather Roundup
Issued by NWS Charleston, SC

Current Version | Previous Version | Graphics & Text | Print | Product List | Glossary On
Versions: 1 2 3 4 5 6 7 8 9 10 11 12 13 14 15 16 17 18 19 20 21 22 23 24 25 26 27 28 29 30 31 32 33 34 35 36 37 38 39 40 41 42 43 44 45 46 47 48 49 50
000
ASUS42 KCHS 292312
RWRCHS

REGIONAL WEATHER ROUNDUP
NATIONAL WEATHER SERVICE CHARLESTON SC
700 PM EDT WED MAR 29 2017

NOTE: "FAIR" INDICATES FEW OR NO CLOUDS BELOW 12,000 FEET WITH NO
SIGNIFICANT WEATHER AND/OR OBSTRUCTIONS TO VISIBILITY.

NOT ALL STATIONS ARE QUALITY CONTROLLED. USE DATA WITH CAUTION...
ESPECIALLY DEWPOINT OBSERVATIONS.

SCZ027-030-031-034>040-042>050-300000-
...SOUTHEAST SOUTH CAROLINA...

CITY           SKY/WX    TMP DP  RH WIND       PRES   REMARKS
N CHARLESTON   PTCLDY    72  60  66 SE9       30.00R
WATERFRONT PRK   N/A     68  63  84 E8        30.00R
JOHNS ISLAND   FAIR      68  61  77 E8        30.01S
PINOPOLIS        N/A     79  57  47 VRB3      29.92S
MONCKS CORNER  FAIR      75  55  50 SE9       30.00R
SUMMERVILLE    FAIR      79  57  47 SE5       30.00R
BEAUFORT MCAS  PTCLDY    76  61  59 S3        29.99R
BEAUFORT ARPT  FAIR      72  61  68 SE5       29.99R
HILTON HEAD IS CLEAR     68  59  73 SE5       30.01R
WALTERBORO     PTCLDY    81  48  32 NW3       30.00R
ALLENDALE      MOCLDY    82  52  34 CALM      29.97S

...SOUTHERN MIDLANDS AND PEE DEE...

CITY           SKY/WX    TMP DP  RH WIND       PRES   REMARKS
GEORGETOWN     MOCLDY    63  59  88 E8        30.06R
KINGSTREE      FAIR      75  55  50 E13       30.01R
ORANGEBURG     PTCLDY    83  46  27 N3        29.99R
BARNWELL       FAIR      84  52  32 W5        29.99R
AIKEN          FAIR      81  50  34 W5G16     30.03S
MANNING        FAIR      79  48  34 S3        30.00R
COLUMBIA       PTCLDY    82  49  31 N6        29.99S
SUMTER         CLEAR     80  49  34 N5        29.97S
FLORENCE       PTCLDY    78  54  43 NE7       30.02R
MYRTLE BEACH   PTCLDY    63  55  77 E15       30.06R
N MYRTLE BEACH CLEAR     63  57  81 E12       30.05R

$$

GAZ063-065-086>088-099>101-113>116-118-119-134>141-150-300000-
...SOUTHEAST GEORGIA...

CITY           SKY/WX    TMP DP  RH WIND       PRES   REMARKS
SAVANNAH ARPT  MOCLDY    79  56  45 E8        29.99R
HUNTER AAF     PTCLDY    76  58  53 E3        29.97R
FORT STEWART   PTCLDY    78  60  54 SE7       29.97R
STATESBORO     PTCLDY    84  58  41 NW3       29.98S
SYLVANIA       PTCLDY   N/A N/A N/A NW5       29.99S
CLAXTON        FAIR      84  59  42 CALM      29.97F

...CSRA...CENTRAL AND FAR SOUTHEAST GEORGIA...

CITY           SKY/WX    TMP DP  RH WIND       PRES   REMARKS
THOMSON        PTCLDY    82  51  33 CALM      30.03S
AUGUSTA-BUSH   PTCLDY    83  54  36 NE5       29.97S
AUGUSTA-DANIEL CLEAR     83  49  30 N6        29.99F
SWAINSBORO     FAIR      82  54  36 N3        29.99S
VIDALIA        PTCLDY    84  57  39 CALM      29.98S
EASTMAN        FAIR      85  41  21 CALM      29.99S
HAZLEHURST     FAIR      82  64  54 CALM      29.97R
ALMA           MOCLDY    84  61  45 W3        29.97S
WAYCROSS       PTCLDY    85  65  51 CALM      29.97S
JESUP          CLOUDY    79  63  57 SE6       29.98S
BAXLEY         MOCLDY    84  66  54 CALM      29.97S
BRUNSWICK      MOCLDY    75  64  69 E8        30.00R
SAINT SIMONS   CLOUDY    72  64  76 E9        29.99R

$$

SCZ027-028-034-036>038-045-046-048>050-GAZ119-141-300000-
...LAKE AND SUPPLEMENTAL COASTAL OBSERVATIONS...

STATION/POSITION TIME  TEMP    WIND        PRES    WAVE   SWELL
                       AIR SEA DIR/SP/G            HT/PER HT/PER/DIR
                 (UTC) (F)     (DEG/KT/KT) (MB)    (FT/S) (FT/S/D)
WINYAH BAY       NOT AVBL
LAKE MURRAY      2220   78     160/  4/  5 1014.9
ACE BASIN NERRS  2145   73     130/  3     1015.0
FORT PULASKI     2236   68 67  100/  6/  6 1015.8S
SAPELO ISLAND    2200   74     100/  5     1015.0

$$

ANZ835-935-AMZ111-154-330-350-352-354-370-450-454-472-300000-
...C-MAN AND BUOY OBSERVATIONS...

STATION/POSITION TIME  TEMP    WIND        PRES    WAVE   SWELL
                       AIR SEA DIR/SP/G            HT/PER HT/PER/DIR
                 (UTC) (F)     (DEG/KT/KT) (MB)    (FT/S) (FT/S/D)
BUOY 41004       2150   71 71   60/ 12/ 16 1015.5    4/10   3/100/10
BUOY 41008       2150   66 67   80/  8/  8 1015.5    3/10   3/ 70/10
FOLLY BEACH CMAN 2300   65      70/  7/  9 1017.1R
CAPERS NEARSHORE NOT AVBL
FRIPP NEARSHORE  2208   65 64  120/  8/ 10 1015.2F


STATION/POSITION TIME  TEMP    WIND        PRES    WAVE   SWELL
                       AIR SEA DIR/SP/G            HT/PER HT/PER/DIR
                 (UTC) (F)     (DEG/KT/KT) (MB)    (FT/S) (FT/S/D)
5E ST. MARYS GA  2230      69                N/A     3/10   2/110/11
FRYING PAN BUOY  2250   67 74   60/ 17/ 21 1017.0R   5/ 9   3/140/ 9
BUOY 41025       2250   58 74   20/ 19/ 25 1018.7R   6/10   3/130/10
CAPE LOOKOUT NC  2300   59      50/ 19/ 21 1018.4R
BUOY 41002       2250   72 72   20/ 12/ 14 1015.5R   6/10   5/110/10
BUOY 41010       NOT AVBL
ST AUGUSTINE FL  2300   71 71  140/  4/  5 1016.4R


$$



USA.gov is the U.S. government's official web portal to all federal, state and local government web resources and services.